Погода в Мирном

Россия / Архангельская область     61°20′02″N   44°32′16″E
темп.,
°C
ветер,
м/с
пор.,
м/с
влажн.,
%
обл.,
%
осадки,
мм/ч
давл.,
гПа
погр.,
м
5 августа, чт
чт500:00+10зюз38850 0.0 1014145
03:00+8з27830 0.0 1015133
06:00+11зсз26694 0.0 1016180
09:00+17зсз264710 0.0 10171330
12:00+19сз35376 0.0 10172205
15:00+21сз343478 0.0 10172526
18:00+17сз255397 0.0 1018157
21:00+12всв116997 0.0 101813
6 августа, пт
пт600:00+12всв0168100 0.0 101911
03:00+11в117571 0.0 101911
06:00+12в1371100 0.0 102094
09:00+17в2353100 0.0 1019566
12:00+17юв2452100 0.0 1020743
15:00+19в344398 0.0 10191296
18:00+18всв3651100 0.0 1019836
21:00+14св2568100 0.0 1020142
7 августа, сб
сб700:00+13всв3872100 0.1 1020272
03:00+12всв3978100 0.1 1021307
06:00+12всв387798 0.0 1022311
09:00+14всв366399 0.0 1022498
12:00+19в2444100 0.0 10211164
15:00+20всв343795 0.0 10201572
18:00+19в2546100 0.0 1020478
21:00+14в2363100 0.0 102152
8 августа, вс
вс800:00+12в266875 0.0 1021116
03:00+11в2572100 0.0 1022106
06:00+12в387097 0.0 1021265
09:00+12вюв3979100 0.3 1022343
12:00+11в31093100 0.9 1022431
15:00+11в41195100 3.4 1022540
18:00+12в31192100 0.1 1022496
21:00+12в31290100 0.1 1022384
9 августа, пн
пн900:00+11в31189100 0.0 1021300
03:00+12в31077100 0.0 1021296
06:00+13вюв41272100 0.1 1020405
09:00+12в31091100 0.9 1019413
12:00+17в487199 0.2 1018746
15:00+14в4792100 1.1 1018463
18:00+13всв3898100 0.6 1018336
21:00+13всв3799100 0.9 1018290